Waarnemingen

Advertentie
Mijn weer
Charlwood, Groot Brittannië (3769): temperatuur & dauwpunt: 12.10.2017 15:00:00 - 18.10.2017 15:00:00 (BST)Charlwood, Groot Brittannië (3769): temperatuur -20cm & temperatuur -100cm: 12.10.2017 15:00:00 - 18.10.2017 15:00:00 (BST)Charlwood, Groot Brittannië (3769): windsnelheid & windstoten: 12.10.2017 15:00:00 - 18.10.2017 15:00:00 (BST)Charlwood, Groot Brittannië (3769): windrichting: 12.10.2017 15:00:00 - 18.10.2017 15:00:00 (BST)Charlwood, Groot Brittannië (3769): luchtdruk: 12.10.2017 15:00:00 - 18.10.2017 15:00:00 (BST)Charlwood, Groot Brittannië (3769): zicht: 12.10.2017 15:00:00 - 18.10.2017 15:00:00 (BST)Charlwood, Groot Brittannië (3769): Zonneschijnduur: 12.10.2017 15:00:00 - 18.10.2017 15:00:00 (BST)Charlwood, Groot Brittannië (3769): neerslag: 12.10.2017 15:00:00 - 18.10.2017 15:00:00 (BST)
Datum & Tijd tt [°C] td [°C] tt -20cm [°C] tt -100cm [°C] ff [km/u] ff [kn] fx [km/u] fx [kn] dd ppp [hPa] vv [km] sd [min] rr [mm]
18.10.2017 15:00:00 15,7 14,7 - - 8 4 - - OZO 1010,2 2,5 0 0,0
18.10.2017 14:00:00 15,3 14,1 - - 8 4 - - OZO 1010,5 4,4 0 0,0
18.10.2017 13:00:00 15,0 13,9 - - 8 4 - - O 1011,0 6 0 0,0
18.10.2017 12:00:00 14,0 13,2 - - 5 3 - - NO 1011,4 8 0 0,0
18.10.2017 11:00:00 13,1 12,3 - - 4 2 - - NO 1011,6 11 0 0,0
18.10.2017 10:00:00 12,5 11,9 14,2 14,4 4 2 - - ONO 1011,7 12 0 0,4
18.10.2017 09:00:00 11,8 11,1 - - 8 4 - - NO 1011,6 12 0 0,6
18.10.2017 08:00:00 11,5 10,4 - - 8 4 - - NNO 1011,7 11 0 0,2
18.10.2017 07:00:00 11,3 10,0 - - 8 4 - - NNO 1011,6 18 0 0,0
18.10.2017 06:00:00 11,2 9,5 - - 8 4 - - NNO 1012,3 13 0 0,2
18.10.2017 05:00:00 11,0 9,1 - - 8 4 - - NNO 1012,6 13 0 0,0
18.10.2017 04:00:00 11,3 8,1 - - 8 4 - - NNO 1013,3 15 0 0,0
18.10.2017 03:00:00 11,2 8,3 - - 8 4 - - NNO 1013,6 22 0 0,0
18.10.2017 02:00:00 10,9 8,4 - - 8 4 - - NNO 1014,5 25 0 0,0
18.10.2017 01:00:00 10,9 8,3 - - 5 3 - - N 1015,0 19 - 0,0
18.10.2017 00:00:00 10,1 7,8 - - 5 3 - - NNO 1015,3 21 0 0,0
17.10.2017 23:00:00 9,1 8,4 - - 2 1 - - N 1016,4 16 0 0,0
17.10.2017 22:00:00 8,4 7,2 - - 0 0 - - N 1016,8 16 0 0,0
17.10.2017 21:00:00 9,6 8,1 - - 2 1 - - NW 1016,9 23 0 0,0
17.10.2017 20:00:00 9,8 8,0 - - 0 0 - - N 1017,2 25 0 0,0
17.10.2017 19:00:00 10,7 8,7 - - 2 1 - - W 1017,4 22 0 0,0
17.10.2017 18:00:00 12,1 9,2 - - 2 1 - - WNW 1017,6 29 0 0,0
17.10.2017 17:00:00 13,5 9,2 - - 2 1 - - ZW 1017,9 23 0 0,0
17.10.2017 16:00:00 14,0 7,7 - - 5 3 - - W 1018,5 35 0 0,0
17.10.2017 15:00:00 14,7 7,9 - - 8 4 - - WZW 1018,7 30 6 0,0
17.10.2017 14:00:00 15,0 8,4 - - 9 5 - - ZW 1019,9 20 12 0,0
17.10.2017 13:00:00 12,5 9,5 - - 4 2 - - ZZW 1020,8 2,3 0 0,0
17.10.2017 12:00:00 12,3 8,8 - - 5 3 - - ZZW 1021,0 0,9 0 0,0
17.10.2017 11:00:00 12,4 9,1 - - 4 2 - - ZW 1020,9 24 0 0,0
17.10.2017 10:00:00 11,5 9,1 14,5 14,4 4 2 - - ZZW 1021,0 24 0 0,0
17.10.2017 09:00:00 9,0 8,2 - - 0 0 - - N 1020,5 23 0 0,0
17.10.2017 08:00:00 8,2 7,8 - - 5 3 - - WZW 1020,5 20 0 0,0
17.10.2017 07:00:00 7,1 5,6 - - 2 1 - - Z 1020,4 12 0 0,0
17.10.2017 06:00:00 8,9 7,5 - - 5 3 - - ZW 1019,7 18 0 0,0
17.10.2017 05:00:00 10,6 8,1 - - 11 6 - - WZW 1019,5 20 0 0,0
17.10.2017 04:00:00 10,7 8,2 - - 8 4 - - ZW 1019,6 18 0 0,0
17.10.2017 03:00:00 10,9 8,2 - - 9 5 - - ZW 1019,9 17 0 0,0
17.10.2017 02:00:00 12,0 8,6 - - 11 6 - - ZW 1019,5 18 0 0,0
17.10.2017 01:00:00 12,6 8,1 - - 15 8 - - ZW 1019,5 19 - 0,0
17.10.2017 00:00:00 12,8 8,0 - - 15 8 - - ZW 1019,5 19 0 0,0
16.10.2017 23:00:00 13,4 8,9 - - 18 10 - - ZW 1018,7 18 0 0,0
16.10.2017 22:00:00 13,6 8,9 - - 18 10 - - ZW 1018,7 18 0 0,0
16.10.2017 21:00:00 13,8 9,3 - - 15 8 - - ZW 1018,1 17 0 0,0
16.10.2017 20:00:00 14,0 9,5 - - 21 11 - - ZW 1017,7 18 0 0,0
16.10.2017 19:00:00 14,9 10,2 - - 24 13 46 25 ZW 1017,2 19 0 -
16.10.2017 18:00:00 15,5 10,8 - - 22 12 46 25 ZW 1016,6 18 0 0,0
16.10.2017 17:00:00 16,2 11,5 - - 26 14 50 27 ZW 1016,3 17 0 0,0
16.10.2017 16:00:00 17,4 13,4 - - 22 12 46 25 ZW 1016,0 16 0 0,0
16.10.2017 15:00:00 18,6 15,0 - - 22 12 - - ZW 1015,5 20 0 0,0
16.10.2017 14:00:00 19,6 15,4 - - 21 11 - - ZZW 1015,4 26 0 0,0
16.10.2017 13:00:00 19,9 15,6 - - 16 9 - - ZZW 1015,5 28 24 0,0
16.10.2017 12:00:00 20,8 15,2 - - 22 12 - - ZZW 1015,3 35 54 0,0
16.10.2017 11:00:00 20,8 15,8 - - 13 7 - - ZZW 1015,5 40 30 0,0
16.10.2017 10:00:00 18,8 15,9 14,7 14,4 11 6 - - ZZO 1015,2 28 6 0,0
16.10.2017 09:00:00 17,2 16,6 - - 9 5 - - ZZO 1015,6 23 0 0,0
16.10.2017 08:00:00 15,5 15,4 - - 9 5 - - ZO 1016,1 13 0 0,0
16.10.2017 07:00:00 13,7 13,3 - - 2 1 - - O 1016,0 7 0 0,0
16.10.2017 06:00:00 14,4 13,8 - - 2 1 - - ZO 1016,2 6 0 0,0
16.10.2017 05:00:00 16,2 15,7 - - 5 3 - - WZW 1016,6 21 0 0,0
16.10.2017 04:00:00 15,4 15,3 - - 5 3 - - Z 1016,5 13 0 0,0
16.10.2017 03:00:00 14,4 14,3 - - 5 3 - - ZZW 1016,8 12 0 0,0
16.10.2017 02:00:00 14,6 14,5 - - 5 3 - - ZZW 1016,9 11 0 0,0
16.10.2017 01:00:00 10,9 10,7 - - 4 2 - - Z 1017,3 1,6 - 0,0
16.10.2017 00:00:00 10,5 10,3 - - 2 1 - - NNO 1017,2 1,7 0 0,0
15.10.2017 23:00:00 10,5 10,2 - - 2 1 - - N 1017,3 1,2 0 0,0
15.10.2017 22:00:00 10,8 10,4 - - 0 0 - - N 1017,6 1,3 0 0,0
15.10.2017 21:00:00 11,5 10,9 - - 2 1 - - ZW 1017,7 1,4 0 0,0
15.10.2017 20:00:00 12,7 11,9 - - 4 2 - - Z 1017,6 3,3 0 0,0
15.10.2017 19:00:00 13,6 12,3 - - 4 2 - - Z 1017,8 4,9 0 0,0
15.10.2017 18:00:00 15,1 12,7 - - 8 4 - - Z 1017,5 12 0 0,0
15.10.2017 17:00:00 16,2 13,1 - - 15 8 - - ZZW 1017,5 15 0 0,0
15.10.2017 16:00:00 18,0 13,9 - - 9 5 - - ZZW 1017,6 17 54 0,0
15.10.2017 15:00:00 18,6 14,1 - - 11 6 - - ZW 1017,9 21 12 0,0
15.10.2017 14:00:00 17,0 12,7 - - 21 11 - - ZW 1018,0 19 12 0,0
15.10.2017 13:00:00 17,6 14,2 - - 13 7 - - ZZW 1018,3 3,3 6 0,0
15.10.2017 12:00:00 17,3 14,8 - - 11 6 - - ZZW 1018,4 16 0 0,0
15.10.2017 11:00:00 16,3 15,4 - - 9 5 - - ZW 1018,7 11 0 0,0
15.10.2017 10:00:00 15,2 15,0 14,7 14,4 9 5 - - ZZW 1018,8 7 0 0,0
15.10.2017 09:00:00 14,6 14,6 - - 11 6 - - ZZW 1018,6 15 0 0,0
15.10.2017 08:00:00 9,5 9,5 - - 4 2 - - Z 1018,5 5 0 0,0
15.10.2017 07:00:00 8,0 7,8 - - 2 1 - - N 1018,7 0,2 0 0,2
15.10.2017 06:00:00 8,9 8,7 - - 2 1 - - NNW 1019,2 0,2 0 0,0
15.10.2017 05:00:00 9,7 9,5 - - 4 2 - - NNO 1019,7 0,2 0 0,0
15.10.2017 04:00:00 10,8 10,6 - - 2 1 - - N 1020,1 0,2 0 0,0
15.10.2017 03:00:00 11,7 11,5 - - 4 2 - - NO 1020,8 0,1 0 0,0
15.10.2017 02:00:00 12,2 12,1 - - 4 2 - - NO 1021,4 0,4 0 0,0
15.10.2017 01:00:00 11,7 11,6 - - 0 0 - - N 1022,0 0,5 - 0,0
15.10.2017 00:00:00 11,3 11,1 - - 4 2 - - ZO 1022,4 0,5 0 0,0
14.10.2017 23:00:00 12,7 12,5 - - 2 1 - - Z 1022,7 1,6 0 0,0
14.10.2017 22:00:00 12,7 12,5 - - 5 3 - - Z 1022,9 2,2 0 0,0
14.10.2017 21:00:00 11,7 11,0 - - 0 0 - - N 1023,4 3,1 0 0,0
14.10.2017 20:00:00 13,2 12,6 - - 4 2 - - ZZW 1023,7 2,6 0 0,0
14.10.2017 19:00:00 14,3 13,1 - - 4 2 - - Z 1024,3 8 0 0,0
14.10.2017 18:00:00 16,9 14,7 - - 4 2 - - ZZW 1024,1 29 0 0,0
14.10.2017 17:00:00 17,4 15,0 - - 8 4 - - Z 1024,2 18 0 0,0
14.10.2017 16:00:00 17,8 14,8 - - 8 4 - - Z 1024,2 30 0 0,0
14.10.2017 15:00:00 18,3 14,6 - - 9 5 - - WZW 1024,5 40 0 0,0
14.10.2017 14:00:00 18,7 15,1 - - 11 6 - - WZW 1024,7 35 0 0,0
14.10.2017 13:00:00 17,6 15,3 - - 13 7 - - ZW 1025,0 29 0 0,0
14.10.2017 12:00:00 17,6 15,1 - - 11 6 - - ZW 1025,1 26 0 0,0
14.10.2017 11:00:00 16,9 15,1 - - 11 6 - - ZW 1025,5 27 0 0,0
14.10.2017 10:00:00 16,3 14,7 14,7 14,4 11 6 - - ZW 1025,2 25 0 0,0
14.10.2017 09:00:00 15,6 14,6 - - 9 5 - - ZZW 1024,8 16 0 0,0
14.10.2017 08:00:00 15,1 14,3 - - 9 5 - - ZW 1024,6 15 0 0,0
14.10.2017 07:00:00 15,0 14,2 - - 5 3 - - ZW 1024,3 15 0 0,0
14.10.2017 06:00:00 14,7 13,7 - - 9 5 - - ZZW 1024,1 13 0 0,0
14.10.2017 05:00:00 15,3 14,2 - - 9 5 - - ZW 1024,3 19 0 0,0
14.10.2017 04:00:00 15,3 14,3 - - 9 5 - - ZW 1024,2 19 0 0,0
14.10.2017 03:00:00 15,4 14,3 - - 9 5 - - ZZW 1024,1 19 0 0,0
14.10.2017 02:00:00 15,5 14,2 - - 8 4 - - ZW 1024,4 19 0 0,0
14.10.2017 01:00:00 15,6 14,2 - - 9 5 - - ZW 1024,2 26 - 0,0
14.10.2017 00:00:00 15,7 14,1 - - 11 6 - - ZW 1024,2 28 0 0,0
13.10.2017 23:00:00 15,5 13,9 - - 11 6 - - WZW 1024,0 22 0 0,0
13.10.2017 22:00:00 15,5 14,0 - - 13 7 - - ZW 1023,8 22 0 0,0
13.10.2017 21:00:00 15,5 14,0 - - 16 9 - - ZW 1023,8 22 0 0,0
13.10.2017 20:00:00 15,9 14,1 - - 11 6 - - ZW 1024,0 27 0 0,0
13.10.2017 19:00:00 16,2 14,2 - - 13 7 - - ZW 1023,6 30 0 0,0
13.10.2017 18:00:00 16,5 14,3 - - 13 7 - - ZW 1023,2 30 0 0,0
13.10.2017 17:00:00 16,9 14,5 - - 15 8 - - ZW 1022,9 35 0 0,0
13.10.2017 16:00:00 17,3 14,9 - - 15 8 - - ZW 1022,9 30 0 0,0
13.10.2017 15:00:00 17,2 14,7 - - 15 8 - - ZW 1022,9 30 0 0,0
13.10.2017 14:00:00 17,3 15,2 - - 15 8 - - ZW 1023,1 30 0 0,0
13.10.2017 13:00:00 17,0 15,2 - - 16 9 - - ZW 1023,1 29 0 0,0
13.10.2017 12:00:00 17,2 15,5 - - 18 10 - - ZW 1022,9 27 0 0,0
13.10.2017 11:00:00 16,8 15,4 - - 16 9 - - ZW 1022,7 29 0 0,0
13.10.2017 10:00:00 16,5 15,2 14,2 14,5 15 8 - - ZW 1022,5 26 0 0,0
13.10.2017 09:00:00 15,7 15,2 - - 16 9 - - ZW 1022,2 9 0 0,0
13.10.2017 08:00:00 15,4 14,6 - - 15 8 - - ZZW 1021,8 14 0 0,0
13.10.2017 07:00:00 14,8 13,9 - - 15 8 - - ZZW 1021,6 18 0 0,0
13.10.2017 06:00:00 14,3 13,4 - - 13 7 - - ZZW 1021,8 15 0 0,0
13.10.2017 05:00:00 14,2 13,0 - - 15 8 - - ZW 1022,3 30 0 0,0
13.10.2017 04:00:00 13,7 13,2 - - 11 6 - - ZW 1022,0 26 0 0,0
13.10.2017 03:00:00 13,2 13,1 - - 9 5 - - ZW 1022,0 12 0 0,0
13.10.2017 02:00:00 11,4 11,2 - - 8 4 - - ZW 1021,9 7 0 0,0
13.10.2017 01:00:00 11,2 11,0 - - 8 4 - - WZW 1021,9 9 - 0,0
13.10.2017 00:00:00 10,3 10,0 - - 8 4 - - ZW 1022,1 10 0 0,0
12.10.2017 23:00:00 9,9 9,5 - - 9 5 - - ZW 1022,3 11 0 0,0
12.10.2017 22:00:00 10,0 9,3 - - 4 2 - - WZW 1022,3 12 0 0,0
12.10.2017 21:00:00 10,1 9,0 - - 5 3 - - WZW 1022,2 16 0 0,0
12.10.2017 20:00:00 10,9 8,8 - - 2 1 - - ZZW 1022,2 22 0 0,0
12.10.2017 19:00:00 11,8 8,3 - - 5 3 - - ZW 1022,0 27 0 0,0
12.10.2017 18:00:00 14,2 9,4 - - 9 5 - - ZW 1021,7 30 6 0,0
12.10.2017 17:00:00 15,3 9,6 - - 15 8 - - ZW 1021,4 35 18 0,0
12.10.2017 16:00:00 16,1 9,5 - - 15 8 - - ZW 1021,4 45 36 0,0
12.10.2017 15:00:00 15,6 8,6 - - 15 8 - - WZW 1021,7 40 18 0,0

tt = temperatuur
td = dauwpunt
tt -20cm = temperatuur -20cm
tt -100cm = temperatuur -100cm
ff = windsnelheid
fx = windstoten
dd = windrichting
ppp = luchtdruk
vv = zicht
sd = Zonneschijnduur
rr = neerslag

Weerstations in de omgeving